Theta_e
313 313 313 312 311 311 311 312 312 313 314 315 315 316 316 316 316 315 315 314 314 315 316 316 316 317 316 316 317 317 316 317 317 317 316 316 316 315 316 316 316 316 317 317 317 316 315 318 318 318 318 317 317 317 316 316 316 318 320 319 318 318 318 317 318 316 316 316 317 316 314 313 314 313 312 312 313 312 312 313 313 314 314 314 313 313 312 312
315 316 315 315 314 312 312 312 312 313 313 315 316 316 317 317 316 316 316 316 316 318 318 317 317 318 317 316 317 317 317 317 317 317 315 315 316 316 316 316 316 317 317 317 317 316 315 316 317 317 317 317 317 316 317 316 316 318 319 319 318 318 317 316 317 316 316 316 316 316 314 312 313 313 311 312 314 314 314 315 315 314 314 314 313 312 312 312
316 317 317 317 316 314 313 312 312 313 313 315 316 316 317 317 317 317 317 316 318 319 318 318 317 318 317 316 317 317 317 316 316 316 315 315 316 316 316 316 316 317 317 317 317 316 315 315 315 316 316 317 317 316 317 316 316 318 317 319 319 317 317 315 315 315 315 314 315 315 314 312 312 311 311 312 314 314 315 315 314 314 314 313 313 312 312 311
317 318 318 318 317 315 313 313 313 313 313 314 316 316 317 318 318 317 317 317 319 320 319 318 317 317 317 317 317 317 316 317 316 315 315 315 316 316 316 316 317 317 317 317 317 316 315 315 315 315 316 318 317 316 316 315 316 316 316 318 317 315 316 315 314 314 314 313 313 314 313 313 312 310 311 312 313 314 315 314 313 313 312 312 313 312 311 311
316 317 318 318 317 315 314 314 313 313 314 315 316 317 317 318 318 318 318 318 319 320 319 318 317 317 317 317 317 316 317 317 316 315 315 315 316 316 316 317 317 317 317 317 316 316 316 315 315 316 316 318 318 317 316 313 313 315 316 318 316 314 315 315 314 313 313 312 312 313 313 312 312 311 311 312 313 314 314 313 312 311 312 312 312 311 310 310
316 317 318 318 317 315 315 315 314 314 314 316 317 317 317 318 318 317 318 318 319 320 319 317 317 318 317 317 317 316 317 317 315 315 316 316 317 317 317 317 316 316 315 315 316 316 316 315 316 317 317 317 317 317 316 312 312 315 317 315 315 314 314 314 312 312 312 311 312 313 312 311 312 313 311 311 312 313 313 312 311 311 311 311 310 309 309 308
317 317 318 318 317 316 315 315 314 314 315 317 318 318 318 318 317 317 318 319 319 319 319 317 317 317 316 317 317 317 317 316 316 316 317 317 317 317 317 315 313 313 313 314 315 316 316 316 317 316 316 317 315 315 315 312 311 314 316 315 313 313 313 313 311 311 311 310 312 312 311 311 313 312 311 311 312 312 312 311 311 310 310 310 309 308 308 306
317 317 318 319 318 316 315 315 314 314 316 318 318 318 318 318 317 317 319 320 320 320 319 318 318 317 317 317 317 317 317 316 317 317 317 317 318 317 316 313 312 312 313 314 315 315 316 316 316 315 316 317 315 314 314 313 313 313 315 314 313 312 311 311 310 310 310 310 311 311 311 312 312 311 311 312 312 311 312 311 310 309 309 309 308 307 306 305
317 317 318 318 318 317 316 315 314 315 317 319 319 318 319 318 317 318 320 321 321 321 320 318 318 317 317 317 317 318 316 316 317 317 317 317 316 315 313 312 312 312 313 314 314 314 315 315 316 315 315 316 314 314 312 313 314 313 314 313 313 313 312 311 310 310 309 310 311 311 313 313 310 310 311 312 311 311 311 310 309 309 308 307 306 305 304 303
317 317 318 319 319 318 316 315 314 316 319 320 319 319 319 318 318 319 320 321 321 322 321 318 317 317 317 317 317 318 316 316 316 316 317 316 314 313 312 312 312 312 313 314 314 314 314 314 314 314 314 314 313 313 312 313 314 312 312 312 312 312 311 311 311 310 310 310 311 312 313 312 310 311 312 311 311 311 311 310 308 308 307 305 304 303 303 303
317 317 318 319 320 319 316 315 315 317 320 321 320 320 320 318 319 320 320 321 322 322 321 318 317 317 316 317 317 317 315 315 315 316 316 315 313 313 313 312 312 313 314 314 314 314 313 313 313 313 314 314 312 312 311 312 313 310 310 311 312 312 311 311 311 311 311 310 310 311 311 311 310 311 312 311 311 311 311 309 307 306 305 304 303 302 302 302
317 317 319 319 320 320 317 315 316 318 321 321 321 321 320 319 320 320 320 321 322 322 321 318 317 316 316 316 316 315 314 314 314 315 315 314 313 314 313 312 312 313 313 314 314 314 313 313 312 313 313 313 313 313 311 310 310 309 308 311 313 314 312 311 312 311 311 310 309 309 311 312 312 312 312 311 311 311 310 308 306 305 304 303 302 302 302 301
318 318 319 320 321 320 318 316 316 318 321 322 321 322 321 320 321 321 320 322 323 322 320 318 317 316 316 316 315 314 314 314 314 314 314 314 314 314 313 312 312 313 313 314 314 313 313 313 312 312 312 312 313 312 311 309 309 309 309 310 313 314 313 312 311 312 312 309 309 310 311 312 313 312 311 311 310 310 309 307 305 304 303 302 302 302 301 301
318 318 319 320 321 320 319 317 316 318 321 322 321 322 322 321 322 321 321 322 323 322 319 317 317 316 316 316 315 315 315 314 314 314 313 313 313 313 312 311 311 312 313 313 314 313 312 312 312 312 312 312 312 311 311 310 310 311 310 311 314 313 313 314 312 312 312 309 310 311 311 312 312 312 312 311 310 309 308 305 303 303 302 301 301 301 301 300
318 319 320 320 321 320 319 317 317 318 320 322 322 322 322 321 322 321 321 322 322 321 319 316 316 316 315 316 315 315 315 315 315 314 313 312 312 312 312 311 311 312 312 313 313 313 312 312 312 312 312 312 311 311 312 312 311 312 311 313 315 313 313 315 312 311 311 310 311 312 311 312 311 312 312 311 309 307 306 303 302 302 301 301 300 300 300 300
317 319 320 320 321 320 319 318 317 318 319 321 322 322 322 321 321 321 320 322 322 321 319 316 316 316 316 316 315 315 315 315 315 314 313 311 311 311 311 310 311 311 312 312 312 313 312 312 312 311 311 312 311 312 314 314 314 314 313 313 315 313 313 313 311 310 311 310 311 311 311 312 311 312 312 310 308 306 304 303 302 301 300 300 300 299 299 299
317 319 320 321 321 320 319 318 318 318 319 320 321 322 322 320 322 320 319 322 322 320 318 316 316 316 316 316 315 315 315 315 315 313 312 311 310 311 310 310 311 310 311 312 312 312 312 312 312 311 311 312 312 313 313 313 314 314 314 314 314 313 312 312 311 310 310 310 310 311 311 311 311 312 311 309 306 305 303 302 301 300 300 300 299 299 299 298
317 319 320 321 321 321 320 319 318 318 318 319 320 321 321 320 322 320 319 322 322 320 319 317 317 317 316 316 315 315 315 315 315 312 311 310 310 310 310 311 311 310 311 312 312 312 310 311 312 313 313 312 312 313 313 313 313 313 313 313 313 312 311 312 312 311 310 310 310 311 311 311 310 311 310 308 305 304 302 301 301 300 299 299 299 299 298 298
318 319 321 321 322 322 321 320 319 319 319 319 320 321 321 320 321 319 319 322 320 320 320 318 317 318 317 316 314 315 315 315 314 312 310 310 310 310 310 311 310 310 311 312 313 311 310 311 312 313 313 311 311 311 312 312 312 311 312 311 311 312 312 311 312 311 309 309 310 310 310 310 309 309 309 306 304 303 302 301 300 300 299 299 299 298 298 298
318 319 321 322 322 323 322 322 321 320 319 319 320 321 317 316 318 317 318 321 319 317 318 317 316 317 317 315 313 314 315 315 314 310 310 310 310 310 311 310 310 311 311 312 313 311 309 310 311 312 312 310 310 309 309 309 309 309 311 311 312 312 312 311 311 310 309 308 309 309 308 309 308 308 308 305 304 303 301 301 300 299 299 299 298 298 297 297
319 319 321 323 323 323 323 323 322 320 319 319 319 317 310 308 313 314 314 318 319 317 316 316 316 315 316 315 312 313 314 314 313 310 310 310 310 311 310 310 310 311 311 309 311 311 309 309 311 312 310 308 308 307 307 307 308 309 310 311 312 312 312 311 310 310 309 308 308 308 307 308 308 307 307 305 303 301 301 300 299 299 298 298 298 297 297 297
320 320 322 323 323 324 323 323 323 319 317 319 318 312 306 305 309 310 311 316 318 317 316 315 315 314 314 314 312 312 312 313 313 310 310 310 310 310 310 310 310 310 311 309 310 311 309 309 310 310 307 305 305 305 306 307 309 310 311 311 311 311 311 310 310 309 308 307 307 307 308 307 307 307 305 305 303 301 301 300 299 298 298 297 297 296 296 296
320 321 323 323 323 324 323 323 322 319 318 319 314 308 305 305 305 308 313 315 317 317 315 315 316 314 314 314 312 312 312 312 311 310 309 309 309 309 309 310 310 311 311 310 309 308 307 308 308 306 305 305 306 306 306 308 310 311 311 311 311 311 310 310 310 308 307 307 307 307 307 306 307 307 305 304 303 302 301 300 298 298 297 297 296 296 295 295
321 322 324 324 323 323 322 323 320 319 320 316 310 306 305 304 304 310 314 314 315 315 313 315 315 314 314 313 312 311 312 310 309 308 308 308 308 308 310 309 309 311 310 309 308 307 306 307 305 305 306 307 308 309 310 310 310 312 311 310 310 309 309 308 308 306 306 307 307 306 305 305 306 306 305 304 303 302 301 299 298 297 297 296 296 296 295 295
322 323 324 324 323 321 322 322 319 320 318 313 309 306 304 303 306 312 313 314 316 315 314 315 314 313 313 313 312 310 311 310 308 308 307 307 308 308 309 307 307 309 309 308 307 307 308 306 304 307 309 309 310 309 311 310 309 310 310 308 308 308 308 307 307 306 305 306 306 304 302 303 305 306 306 304 302 300 299 299 298 297 297 296 296 295 295 295
322 324 324 323 322 320 320 319 319 320 316 311 309 305 303 304 308 313 313 315 318 316 314 315 314 314 313 313 312 310 311 311 308 308 307 307 308 307 308 307 306 307 308 307 307 306 307 305 305 309 310 310 310 309 310 309 308 309 308 306 306 307 307 306 306 306 304 304 307 305 302 302 304 306 306 303 300 299 298 298 298 297 296 296 296 295 295 295
323 323 323 323 321 320 320 318 318 318 312 309 307 303 303 305 309 313 314 318 320 315 315 315 314 315 313 313 312 310 314 312 308 307 307 307 307 306 307 307 306 306 306 306 306 306 306 306 307 309 309 308 308 309 308 307 308 309 307 305 306 306 306 306 306 305 304 304 305 306 304 302 304 306 306 303 300 299 297 297 297 297 296 296 296 295 295 295
323 323 322 321 320 321 320 317 317 314 309 307 304 302 304 307 310 313 317 322 319 314 314 314 313 314 313 313 312 311 312 311 310 309 307 306 306 305 306 306 305 306 304 304 306 307 307 308 308 307 307 307 307 307 306 306 308 308 305 304 305 305 305 305 305 304 304 304 303 304 305 304 305 306 304 302 300 298 297 296 297 297 297 296 296 295 295 295
322 322 322 320 320 321 319 317 315 311 307 305 302 303 305 308 311 314 318 321 318 314 313 313 314 313 312 312 311 310 310 310 311 309 307 306 305 305 306 305 304 305 304 304 307 308 306 305 305 305 306 307 306 304 304 305 305 304 303 304 305 305 305 306 305 303 303 303 302 303 304 304 303 302 301 301 299 297 296 296 296 297 296 296 295 295 295 294
322 322 322 321 321 320 318 317 313 308 305 303 302 304 307 310 313 317 321 320 317 314 311 312 314 312 312 313 312 310 309 309 309 307 306 305 304 304 304 304 304 305 305 304 306 306 304 303 304 305 306 305 304 302 302 303 302 301 303 304 304 304 303 303 303 303 302 302 303 302 301 299 298 300 301 299 297 296 296 296 296 297 296 295 295 295 294 294
321 322 322 322 320 318 317 314 309 305 304 302 303 306 309 314 316 320 323 319 316 315 312 313 314 312 312 314 313 311 309 308 307 306 306 305 305 305 304 305 305 305 306 305 306 306 305 305 305 305 304 304 305 304 303 303 302 302 303 302 302 302 301 301 301 302 301 302 304 301 299 297 296 299 299 297 296 296 296 295 295 296 296 295 294 294 294 294
320 322 323 322 319 316 314 310 306 304 302 302 305 309 313 317 317 320 322 318 317 318 315 314 313 313 313 311 313 312 309 308 306 305 305 305 305 305 304 305 305 306 308 307 307 308 307 306 304 304 303 303 306 307 306 304 302 302 302 301 301 300 300 300 300 300 300 302 302 300 297 296 297 299 299 296 296 296 296 296 296 296 295 294 294 294 294 293
319 321 322 321 318 315 312 308 304 303 301 302 306 311 315 317 319 320 320 319 318 316 314 313 312 312 312 311 313 311 308 308 306 304 303 303 304 304 302 302 303 306 306 307 307 307 307 305 303 304 304 302 304 306 305 304 301 301 302 301 299 298 297 298 299 299 299 300 299 297 297 296 297 300 299 296 296 296 296 296 296 295 295 294 294 293 293 293
318 319 321 320 317 315 312 308 303 301 301 302 306 313 316 317 319 318 318 320 316 311 311 312 310 310 311 312 311 308 308 308 306 304 303 303 304 304 303 302 302 304 304 305 307 306 307 307 304 305 305 302 302 302 302 302 300 300 301 300 299 297 297 297 298 298 298 298 297 297 297 297 298 300 299 296 296 296 296 295 295 295 294 294 293 293 293 292
319 318 319 319 318 316 313 308 304 301 301 302 306 312 316 318 317 316 316 317 315 311 310 309 310 312 312 311 307 305 308 308 304 303 304 304 304 305 305 304 303 304 305 306 306 304 305 306 304 302 301 300 300 300 300 300 299 299 300 300 299 299 299 298 298 297 296 296 297 298 298 299 299 299 297 296 296 296 296 295 295 294 294 293 293 293 292 292
320 319 319 320 318 317 314 308 304 301 301 304 308 310 314 316 317 317 316 313 313 314 313 311 311 312 312 310 307 305 305 305 303 304 304 304 304 305 305 303 302 303 305 306 306 305 304 305 303 300 299 298 297 299 300 300 300 299 298 299 299 298 298 297 296 297 296 295 298 298 298 299 298 297 296 296 295 295 295 295 294 294 293 293 292 292 292 292
322 322 321 321 319 317 314 308 303 300 301 305 308 310 314 314 314 316 315 311 310 312 312 312 313 313 313 312 309 306 305 304 303 303 304 304 305 304 303 301 300 301 303 303 304 304 303 304 304 302 301 298 296 297 298 298 298 298 297 297 297 295 295 294 294 295 296 295 297 297 297 297 297 297 296 295 295 295 294 294 294 293 293 293 292 292 292 292
323 323 322 322 321 319 316 310 302 300 302 306 307 309 313 312 309 310 312 310 311 311 310 312 313 312 313 312 310 307 305 305 305 304 305 305 305 304 302 301 300 299 299 299 302 303 302 303 304 302 300 298 297 298 298 297 297 297 298 297 296 294 294 294 293 293 294 294 295 296 296 296 296 297 295 295 294 294 293 293 293 293 292 292 292 292 292 291
323 321 320 323 321 318 317 310 301 300 304 306 305 307 311 311 308 307 309 310 311 311 310 311 312 312 310 310 309 307 304 305 305 304 305 306 305 304 302 302 300 298 297 298 301 302 301 301 301 300 299 298 297 298 297 297 296 296 297 297 295 294 293 294 294 293 293 294 294 295 296 296 296 296 294 294 294 293 293 292 292 293 292 292 292 292 291 291
321 317 316 319 317 314 310 304 302 305 307 306 305 307 310 310 308 306 308 310 310 310 311 311 311 311 310 309 308 307 305 304 304 304 305 305 305 304 301 301 300 298 297 297 299 300 300 300 300 300 297 297 297 297 297 297 296 295 295 295 295 295 294 293 293 293 293 293 294 294 295 296 296 295 294 294 294 293 293 292 292 292 292 292 292 292 291 291
318 313 312 316 316 312 306 304 306 309 311 310 308 310 311 310 309 308 307 308 309 310 311 311 311 310 310 309 308 306 305 304 303 304 304 304 305 304 301 299 299 297 297 297 297 298 298 299 301 299 297 297 297 296 296 297 296 296 296 296 295 294 293 293 293 293 293 293 294 293 293 295 295 295 295 294 293 293 293 292 292 292 292 292 291 291 291 291
316 312 312 315 316 312 306 307 309 310 312 312 308 309 311 310 311 312 309 307 308 309 309 308 309 310 309 309 308 306 305 305 304 304 304 304 305 303 299 298 297 297 297 297 297 298 297 298 299 299 298 297 295 294 294 296 296 296 296 296 295 295 294 293 293 293 293 293 294 293 293 295 295 294 295 294 294 294 293 293 292 292 292 292 291 291 291 291
313 313 315 315 313 308 307 309 310 310 313 312 308 309 310 310 312 312 310 309 309 309 309 308 308 308 308 308 308 306 305 306 306 305 304 303 302 299 296 297 296 296 296 296 296 296 296 296 296 298 297 294 291 293 294 294 295 296 295 295 295 295 295 294 293 293 293 294 294 294 294 296 295 295 295 295 294 293 293 292 292 292 291 291 291 291 291 291
313 312 312 312 309 306 308 310 310 311 312 309 309 310 309 309 311 311 310 310 309 309 309 309 308 308 307 306 306 306 305 306 306 305 304 302 299 295 294 295 296 295 296 296 296 297 297 296 296 296 296 293 292 293 294 293 294 294 294 295 295 294 294 294 294 294 294 294 294 294 294 295 295 295 295 294 294 293 293 292 292 292 291 291 291 291 291 291
313 311 308 308 308 307 309 311 311 312 312 310 310 311 309 308 309 309 310 311 309 308 309 308 307 306 305 304 304 305 305 305 306 305 303 300 297 294 293 294 294 294 295 295 296 296 296 296 296 296 296 295 295 295 295 294 294 294 294 294 294 294 294 294 293 294 294 295 294 294 294 295 295 295 294 293 293 292 292 292 291 291 291 291 291 291 291 291
312 312 308 305 307 309 309 309 309 310 311 311 310 311 311 310 308 308 309 310 309 308 307 305 304 304 303 303 304 304 303 304 304 302 302 299 296 294 294 294 294 293 294 295 295 296 296 296 296 296 295 295 295 295 294 294 293 293 294 294 294 294 294 294 293 293 294 294 293 294 294 294 294 294 293 293 292 291 292 292 291 291 291 291 291 291 291 290
312 312 309 306 308 309 308 308 307 307 309 310 311 311 311 311 310 308 307 308 308 307 306 304 303 304 304 303 304 304 302 303 302 301 301 299 296 295 294 294 294 293 295 296 295 296 296 295 295 296 296 295 295 294 294 293 293 293 293 293 294 294 294 294 294 293 293 293 293 294 294 293 293 293 292 292 291 291 291 291 291 291 291 291 291 290 290 290
313 312 310 311 313 312 308 308 307 307 308 308 309 310 310 310 310 309 307 306 305 305 306 305 303 304 305 304 304 303 302 302 302 301 301 299 296 295 294 294 293 293 295 296 295 295 295 294 294 295 295 295 294 294 294 293 293 293 293 293 293 294 294 294 293 293 293 293 293 293 293 293 293 293 292 292 292 291 291 291 291 291 291 291 290 289 289 289
313 311 309 310 313 313 310 309 307 307 307 307 307 308 308 308 309 309 308 306 304 303 306 307 305 303 304 304 303 303 303 303 303 302 300 299 297 296 296 295 294 295 295 295 294 294 294 293 294 294 294 294 293 293 294 293 293 293 293 293 293 293 293 293 293 293 293 293 293 293 292 292 292 292 292 292 292 292 291 291 291 291 291 290 289 289 289 288
313 311 310 308 308 308 308 309 308 307 307 307 307 307 307 308 309 309 307 307 306 304 303 306 307 304 303 303 303 303 303 304 304 302 299 299 298 296 296 296 295 295 294 293 294 294 293 293 294 294 294 294 293 293 293 293 293 293 292 292 292 292 292 292 292 292 292 292 292 292 292 292 292 293 292 292 292 292 291 292 291 291 290 289 289 289 288 287
315 315 313 311 309 307 307 308 308 308 308 307 307 308 308 308 309 309 308 307 308 307 304 304 306 304 302 302 302 303 303 302 303 301 299 299 299 297 297 296 296 295 294 293 293 294 293 293 293 293 293 294 293 293 292 293 293 292 292 292 292 292 292 292 292 292 292 292 291 291 291 291 292 292 292 292 292 292 292 291 290 289 289 288 288 288 287 285
316 315 314 312 312 312 308 308 308 309 310 310 309 309 309 309 309 309 309 307 306 306 305 304 305 304 302 302 302 302 302 300 299 298 297 297 297 296 295 295 296 296 295 294 293 293 294 294 292 293 293 293 293 291 291 292 291 291 292 292 292 292 292 292 292 292 292 291 291 291 291 291 292 292 291 291 291 292 291 290 289 289 288 288 288 287 285 284
Wind_Speed
13 14 14 15 15 16 16 17 18 20 21 21 21 22 22 24 24 23 23 24 26 29 31 29 23 17 9 1 4 6 7 6 4 3 4 7 7 6 8 11 12 12 12 10 9 8 6 3 4 5 8 6 5 4 2 4 4 1 2 2 0 1 1 2 1 2 5 8 10 9 5 8 8 7 12 16 12 10 14 16 15 15 16 19 23 27 26 26
14 15 16 16 16 16 16 16 17 19 20 20 21 21 21 22 22 22 22 23 25 28 30 28 24 18 9 2 3 6 6 4 3 6 8 8 6 7 10 12 13 13 12 12 10 9 7 6 7 7 9 5 3 3 1 3 4 1 1 2 1 2 2 2 2 3 4 9 15 16 8 8 7 7 11 12 11 12 11 11 15 19 23 26 27 31 30 27
14 15 16 17 17 17 17 16 16 18 19 19 20 20 21 21 21 21 22 22 24 28 30 27 23 17 9 3 2 6 5 2 4 8 9 7 7 8 11 12 14 14 13 14 12 10 9 9 8 9 9 4 2 2 0 3 3 1 2 2 2 2 1 1 0 1 3 9 15 16 11 9 6 5 7 8 13 12 9 14 17 20 26 31 32 34 33 31
13 15 16 17 18 18 17 17 17 17 18 18 18 20 21 21 21 21 21 22 24 27 29 27 21 15 9 4 1 6 6 3 6 9 8 7 8 9 11 13 14 14 13 12 10 10 9 9 9 9 8 3 2 2 1 3 2 1 2 2 4 2 0 3 1 1 2 7 13 16 13 10 7 6 7 7 10 8 13 18 19 21 26 29 31 32 32 31
13 15 16 17 18 18 18 17 17 17 17 17 18 19 20 21 21 21 21 21 23 27 29 25 19 12 7 5 2 6 8 2 5 7 7 7 10 10 11 12 12 12 11 10 10 10 9 9 9 9 6 2 1 1 1 2 2 2 3 2 2 2 1 4 2 1 3 8 13 15 10 9 10 7 5 5 6 9 14 18 22 25 24 24 25 26 26 27
14 15 16 17 18 18 18 18 17 17 17 16 17 18 20 21 21 21 21 21 22 27 28 23 16 9 7 6 5 7 6 2 3 5 6 8 10 10 11 11 10 10 10 11 11 10 9 9 8 5 3 1 1 1 1 2 2 3 2 2 1 3 1 2 2 3 6 8 12 11 7 9 10 5 5 7 6 8 13 18 23 23 19 18 20 22 23 24
14 15 16 17 18 18 19 18 18 17 16 16 17 18 20 20 21 21 21 21 22 26 28 21 12 5 6 8 9 8 7 7 4 5 7 7 8 9 9 10 11 11 11 11 9 8 8 9 6 3 3 2 1 0 2 3 3 3 2 1 2 4 2 1 2 6 7 9 11 11 10 9 6 4 7 7 5 10 16 19 21 17 15 15 17 19 21 24
14 15 16 17 18 19 19 18 17 17 16 17 17 18 19 20 21 22 22 22 22 26 28 20 9 2 5 7 9 9 11 9 5 7 8 8 8 7 8 10 11 12 11 10 8 8 7 7 7 4 3 0 1 1 3 5 4 5 3 4 1 3 2 2 4 5 5 6 8 11 12 5 3 4 5 5 12 19 23 19 16 13 13 16 18 21 23 26
14 15 16 17 18 19 19 18 17 17 17 18 18 18 20 20 20 21 22 22 23 27 27 19 8 1 3 3 4 6 9 9 7 8 8 7 6 7 9 11 12 11 11 10 10 10 8 7 7 5 3 2 2 2 2 4 2 3 5 7 8 4 3 4 3 3 3 1 2 8 13 5 3 4 2 10 19 26 23 15 15 15 16 19 21 24 26 28
14 15 16 17 18 19 19 18 17 17 18 19 19 19 20 20 20 20 21 23 25 28 27 18 5 1 2 2 3 4 7 10 10 9 7 6 6 8 11 11 12 12 11 10 12 12 9 7 7 5 4 3 4 3 2 3 1 3 8 11 12 9 5 3 4 5 6 5 3 8 15 7 5 4 5 13 22 26 19 15 17 18 20 22 23 25 27 29
14 15 16 17 18 18 19 18 17 18 19 20 20 20 20 19 19 20 21 24 27 29 28 16 2 5 3 5 10 7 8 12 10 8 6 5 6 8 10 12 13 13 12 11 12 13 10 8 7 5 3 2 3 3 4 4 4 5 8 12 13 6 3 5 6 5 7 7 3 8 13 6 4 2 8 15 21 22 16 16 18 19 20 21 23 25 26 28
14 15 17 18 18 18 19 18 18 18 20 20 20 20 19 19 20 20 22 25 29 30 27 14 1 7 8 11 15 12 12 13 9 8 5 2 3 5 9 12 13 13 12 11 12 13 11 8 6 3 3 4 4 2 3 4 5 5 4 7 11 4 7 8 6 4 5 6 3 6 8 3 1 5 11 16 18 17 13 16 17 18 19 20 21 23 25 27
14 15 17 17 18 18 18 19 18 18 20 20 20 21 19 19 20 20 22 26 30 29 24 14 1 5 6 10 14 14 15 14 11 10 7 3 3 4 8 11 12 12 11 10 11 13 12 8 5 3 3 4 4 4 5 6 4 3 0 2 7 6 3 7 7 3 4 7 4 4 5 2 3 6 9 12 14 13 13 17 16 17 19 20 21 21 23 26
14 15 16 17 18 18 18 18 18 18 20 20 20 21 20 19 20 20 22 27 29 26 20 11 2 4 5 9 11 11 11 11 10 9 8 7 6 5 8 11 12 12 9 9 10 13 13 8 5 3 3 4 5 6 7 3 1 2 0 2 1 4 4 3 7 4 4 6 6 7 4 4 8 5 9 11 11 12 18 19 16 17 18 19 20 21 22 25
14 14 16 17 18 17 18 18 18 18 20 21 21 21 21 19 20 18 20 28 28 24 18 8 4 4 8 9 8 7 6 6 7 8 9 10 8 6 9 11 11 12 9 8 10 13 14 9 4 2 3 5 6 5 5 2 1 1 2 2 2 2 8 7 6 8 6 3 5 6 3 5 9 6 11 13 11 20 22 18 16 17 18 19 19 21 22 24
13 14 15 16 18 17 18 18 18 19 19 22 21 22 21 18 22 17 17 28 27 22 15 7 3 3 6 5 5 4 3 3 5 7 9 10 10 7 9 11 11 12 9 7 9 12 15 8 3 2 3 5 5 4 4 2 1 1 3 4 5 5 9 8 3 8 8 6 3 3 3 6 8 8 14 11 17 26 21 17 16 16 17 18 18 20 21 24
13 14 14 16 17 17 18 17 18 19 19 22 22 23 21 19 24 15 13 27 27 20 10 6 6 0 3 2 3 1 3 3 3 7 9 9 10 7 8 10 10 12 9 6 8 12 14 7 1 1 2 2 3 4 5 4 3 3 4 4 6 6 8 9 1 4 8 7 3 1 0 6 9 11 14 9 22 24 19 16 15 15 16 17 18 20 22 26
13 13 14 16 17 17 18 18 19 19 20 22 22 25 21 20 24 13 13 29 28 18 5 4 9 1 2 2 1 0 4 4 1 6 9 9 10 7 8 10 9 12 10 4 7 13 13 5 2 2 0 2 5 5 4 4 5 6 6 6 7 6 7 11 8 4 9 8 7 3 1 6 11 12 11 17 25 22 18 15 14 16 16 18 19 21 23 25
13 13 13 15 16 17 18 18 20 21 22 22 22 25 22 24 24 11 19 33 22 11 4 7 9 3 1 2 3 1 4 3 1 5 9 10 12 8 8 11 8 11 9 4 7 12 11 4 1 1 2 5 6 4 3 4 6 7 7 6 8 9 8 11 11 6 9 12 8 5 6 8 11 12 10 20 23 20 17 15 15 15 16 18 20 22 23 25
13 13 12 14 16 17 18 19 20 22 23 23 25 26 22 26 19 9 27 35 18 9 8 9 10 7 4 2 5 2 4 3 2 6 10 10 12 7 7 11 8 9 7 3 6 7 7 4 2 2 4 7 6 3 4 4 4 6 7 6 8 10 8 9 11 5 10 12 7 8 11 9 12 11 12 20 19 18 16 15 16 15 16 17 19 21 23 24
13 12 12 14 15 16 17 18 20 21 23 23 26 23 18 18 10 8 25 28 20 16 9 6 6 5 3 1 6 3 3 5 3 7 12 10 11 5 6 9 5 5 5 1 5 3 4 3 2 2 3 4 4 3 4 4 3 4 6 7 8 8 8 10 9 5 10 10 9 14 14 8 11 7 14 17 15 15 14 15 14 15 16 16 19 21 22 23
13 12 12 13 14 16 16 18 19 19 20 21 23 20 16 15 10 10 14 14 20 16 4 3 4 2 2 2 5 5 2 4 5 7 11 8 9 6 4 5 2 3 3 2 4 3 3 2 2 2 2 1 0 0 2 4 5 5 4 6 7 6 9 8 3 5 10 8 11 15 12 9 8 7 15 13 14 14 13 14 14 15 17 18 20 21 23 25
12 12 12 12 13 15 15 17 18 18 19 20 20 18 16 15 14 15 11 9 14 9 1 2 4 1 2 1 6 7 3 2 3 8 11 8 7 7 3 2 1 1 1 2 2 2 4 2 3 2 2 2 1 1 2 5 4 3 4 6 6 7 9 5 2 9 12 8 9 13 10 8 1 10 12 11 14 13 11 13 14 16 17 18 18 19 21 24
12 12 12 12 12 13 14 16 16 17 19 19 18 17 17 16 15 15 10 5 7 5 2 1 3 1 1 2 6 7 3 1 3 7 11 10 8 5 3 2 1 1 1 1 3 2 6 3 3 3 3 1 3 2 1 4 5 2 1 3 6 7 8 7 10 15 13 6 4 10 11 3 4 4 6 8 10 10 9 12 16 17 17 16 16 18 20 22
12 12 11 11 11 12 13 14 15 16 18 18 17 16 16 16 16 14 8 3 3 3 1 2 2 1 0 4 7 7 3 1 4 7 8 10 8 4 2 1 1 1 2 2 1 4 4 2 2 2 2 1 3 4 1 2 6 4 2 1 5 7 8 11 13 14 11 6 5 10 12 3 2 1 6 7 5 7 9 13 15 16 17 18 19 20 22 24
12 12 11 11 10 10 12 13 13 15 17 17 15 16 15 14 15 12 5 1 1 0 1 2 1 2 1 4 6 6 3 3 5 7 6 8 8 4 2 1 1 1 2 1 2 3 0 2 2 1 2 1 2 4 1 1 5 4 1 1 5 6 9 12 13 10 9 9 5 7 8 8 6 2 9 9 5 7 8 11 13 15 17 18 19 20 25 29
11 11 11 10 9 9 11 12 12 14 15 15 15 15 13 12 13 10 4 1 1 1 1 2 1 2 2 4 5 4 3 3 5 2 3 7 7 3 3 2 1 1 2 2 2 1 2 1 1 2 2 2 4 4 0 1 4 2 2 3 5 7 11 13 12 9 8 10 6 1 6 9 8 2 9 8 5 5 9 12 14 17 19 20 21 24 29 31
10 10 10 10 8 8 9 9 11 13 13 13 14 13 11 12 11 6 2 2 1 2 2 2 0 2 2 5 4 2 3 5 4 1 1 5 4 0 3 2 2 2 3 3 4 1 2 1 1 2 2 2 3 2 1 1 2 1 3 3 5 6 10 10 10 10 7 7 7 4 5 7 6 3 3 4 3 6 11 12 15 17 19 21 24 28 31 33
9 9 9 8 8 7 7 8 10 12 12 12 12 10 10 11 7 1 1 2 1 2 2 2 1 1 3 4 3 3 2 2 2 2 1 1 2 1 3 1 2 3 3 3 4 0 1 1 1 1 2 2 1 2 2 2 1 3 4 4 5 6 8 8 7 8 6 5 8 5 2 5 6 5 4 1 4 5 9 10 12 15 19 22 26 30 32 33
9 9 9 8 8 8 7 8 10 11 11 11 9 8 8 7 2 0 2 2 0 1 1 1 1 3 5 3 3 2 1 2 3 3 1 1 1 1 2 2 2 3 2 1 3 1 1 1 2 2 1 0 3 3 2 3 1 5 4 4 6 6 6 7 6 5 4 6 6 3 3 2 6 4 1 1 4 5 8 9 11 16 22 26 29 32 32 32
9 9 8 8 8 7 8 10 10 10 10 8 6 6 5 2 1 2 3 0 1 0 2 1 1 2 3 1 3 2 1 1 3 3 1 1 2 2 1 2 2 2 2 2 3 1 0 3 3 1 0 2 3 3 2 1 3 3 2 6 7 5 4 5 4 1 3 4 5 8 2 3 7 3 3 5 5 7 8 11 13 17 24 29 31 32 32 31
10 10 9 8 8 8 9 10 10 10 9 6 4 4 3 1 1 3 2 1 1 1 1 0 1 0 2 1 3 1 0 1 0 1 1 1 1 1 1 2 2 3 3 3 1 1 1 3 0 2 1 2 2 3 3 3 1 2 3 4 5 5 4 4 3 3 6 4 7 6 4 5 10 7 4 6 6 8 11 14 14 17 23 27 30 32 31 31
12 11 10 9 9 9 9 10 10 10 8 3 1 2 2 1 3 2 1 1 0 1 1 1 0 0 1 2 3 1 1 2 2 2 1 1 1 1 2 3 2 4 3 1 0 2 2 2 1 2 2 1 3 3 3 2 2 2 2 1 2 4 6 6 6 5 7 4 6 3 4 5 11 6 7 6 7 10 15 16 13 16 21 26 29 31 30 32
13 13 12 11 10 10 10 11 10 9 6 2 1 1 1 3 3 0 1 3 1 2 1 2 1 0 2 3 2 1 2 2 2 1 1 2 2 3 3 3 3 2 1 1 1 2 3 2 3 4 2 3 2 0 1 1 2 2 2 1 3 2 4 6 5 5 7 9 5 4 2 4 6 2 10 6 8 12 14 12 12 18 22 26 29 30 30 33
15 15 14 12 11 11 11 11 10 8 5 3 2 2 3 5 2 1 2 1 1 1 1 1 0 3 5 4 1 1 5 2 3 1 3 3 4 3 2 3 3 2 2 3 1 2 4 4 2 1 1 2 3 2 1 1 2 2 3 2 3 2 4 6 3 2 5 10 9 4 4 4 1 7 10 3 10 13 13 12 15 21 25 28 30 30 31 34
16 16 16 14 12 12 12 12 10 7 6 5 3 4 6 4 2 2 2 1 1 1 1 2 3 3 5 3 1 1 3 2 1 1 3 3 4 3 2 2 2 3 2 2 1 2 3 2 4 2 1 2 1 3 2 2 1 3 3 2 1 3 1 5 4 0 2 8 8 4 5 7 1 6 6 4 11 12 12 14 19 24 28 31 32 32 33 37
18 18 17 15 13 13 13 12 9 8 8 6 4 6 4 2 4 4 3 3 2 2 0 3 2 3 5 3 2 3 2 2 1 1 2 2 3 4 5 2 2 3 3 3 2 1 2 2 4 4 2 2 1 4 3 2 2 2 3 2 5 4 2 1 2 2 4 8 7 6 9 9 6 2 2 5 13 13 13 16 21 26 30 33 33 34 35 40
19 19 19 17 15 15 14 13 10 9 8 5 6 8 3 3 6 5 6 6 3 3 2 3 2 3 4 4 2 4 3 2 3 2 2 3 2 5 7 4 4 4 3 3 2 1 1 3 3 3 2 4 3 3 3 0 2 2 1 3 3 2 2 4 1 2 6 9 7 8 10 9 7 2 2 8 14 14 15 18 21 25 30 33 35 36 38 42
19 17 15 14 14 14 15 15 11 10 8 4 7 7 2 3 6 8 10 7 3 3 3 5 6 3 3 3 1 2 5 4 3 2 3 4 2 4 7 4 5 5 2 1 2 0 1 3 1 2 1 3 3 3 4 4 2 3 2 3 2 1 2 3 1 1 5 8 7 9 11 5 2 1 4 10 12 13 17 18 18 24 31 34 35 37 40 42
17 11 9 9 9 9 11 11 10 10 6 4 6 5 1 2 6 10 15 10 4 5 5 3 6 6 4 3 2 2 4 4 3 3 3 3 2 3 7 5 5 6 3 2 2 1 1 3 2 3 1 2 4 3 2 3 4 3 5 5 3 2 2 2 2 3 4 7 6 8 10 4 2 3 6 9 10 12 17 18 19 25 32 35 36 38 42 43
14 6 7 10 9 9 10 10 8 7 4 2 3 2 1 4 5 9 15 15 9 8 7 3 5 7 5 4 4 3 3 3 4 5 4 4 4 3 7 9 8 9 5 2 3 3 2 2 2 4 4 4 2 3 3 3 3 5 6 6 4 4 3 3 5 4 3 4 5 6 12 8 0 2 3 5 8 13 19 21 22 28 33 36 38 40 43 45
12 6 8 11 12 12 12 9 4 4 3 3 4 5 5 6 5 8 13 13 9 7 6 4 4 5 5 6 5 3 3 4 5 5 5 6 4 2 6 13 13 11 6 2 1 1 1 1 3 4 4 2 2 5 4 3 4 4 4 4 4 3 4 4 5 3 2 5 5 6 12 8 1 3 1 6 12 17 23 26 27 30 35 38 41 43 45 46
12 11 11 11 14 17 13 5 2 3 2 4 6 8 9 6 5 7 9 9 6 5 5 4 5 6 7 6 5 4 5 4 6 6 4 3 2 1 9 16 14 9 4 1 2 3 3 1 3 4 2 3 3 3 3 2 3 4 4 4 5 4 4 4 5 4 5 7 5 6 10 7 4 5 3 12 17 21 24 27 29 31 35 39 42 45 47 49
12 13 12 12 16 19 13 5 5 5 5 5 5 6 7 7 8 8 8 9 10 6 4 4 6 9 7 3 4 6 7 5 6 6 4 2 2 4 11 15 12 7 3 1 2 5 4 2 3 2 3 2 2 2 2 1 2 4 4 6 6 5 3 2 5 4 5 8 9 7 9 6 2 1 9 14 17 20 24 27 30 32 36 41 43 45 47 52
9 9 10 14 21 22 15 10 8 7 7 8 8 7 7 6 10 16 16 15 14 10 5 3 6 7 5 3 3 5 7 6 4 2 2 2 2 3 8 11 9 5 3 2 2 4 3 2 3 3 6 6 4 2 2 4 4 4 4 6 7 7 7 5 3 5 6 7 8 8 9 9 8 11 14 15 15 19 23 28 32 33 37 42 45 46 49 51
7 5 6 9 18 23 20 16 14 9 7 9 8 8 11 8 8 17 21 17 16 16 10 5 5 5 3 4 4 5 7 6 2 1 2 3 2 2 6 9 6 4 3 3 3 3 1 2 5 8 9 8 7 3 4 4 4 5 6 8 8 9 10 7 4 6 7 5 7 11 13 13 15 15 16 16 17 18 20 27 34 36 39 43 45 47 48 49
8 4 7 7 9 16 17 16 15 11 8 9 6 5 12 13 6 9 16 14 14 17 11 4 7 8 6 8 7 6 7 5 3 3 3 3 3 1 5 6 5 6 4 4 5 4 1 3 6 10 12 9 7 5 1 2 6 8 8 11 10 9 10 9 8 9 7 6 9 12 10 12 15 15 17 18 17 16 20 29 36 39 41 44 45 45 47 47
13 6 12 14 10 8 10 14 16 14 13 11 8 5 9 13 11 9 11 9 9 14 10 6 10 14 13 11 7 5 7 6 6 5 3 4 4 3 4 4 5 7 6 4 5 4 1 4 4 6 9 8 6 7 6 5 8 8 9 14 14 9 10 11 12 14 11 9 13 12 13 16 16 16 18 18 17 19 25 33 38 39 40 41 42 43 45 44
19 9 10 16 14 8 10 17 20 19 17 13 10 10 11 16 18 13 7 4 5 12 15 13 12 16 17 13 9 8 9 8 8 6 5 4 5 6 5 3 5 10 8 4 3 3 1 2 2 3 6 7 7 9 9 9 9 9 11 16 15 11 12 13 13 14 14 16 18 17 18 20 15 14 16 18 22 26 30 34 36 37 37 39 41 41 42 42
26 19 13 13 13 12 11 14 17 14 14 14 12 13 15 20 22 14 9 11 11 8 14 19 16 14 16 14 13 14 13 11 7 5 8 6 4 5 4 2 6 9 8 5 3 3 3 2 2 2 4 6 9 11 10 9 10 9 12 17 16 12 14 14 12 11 12 14 16 16 17 16 11 12 16 21 25 27 28 30 31 32 36 39 39 39 41 43
38 34 26 15 9 12 13 11 12 9 8 11 13 14 17 22 23 16 12 21 23 11 13 22 18 10 10 14 17 16 14 12 5 5 13 11 7 9 7 5 9 9 6 5 4 3 4 2 2 2 4 4 6 8 8 7 8 10 14 19 18 13 11 10 8 8 9 11 13 13 12 10 8 12 18 22 25 25 24 25 26 31 37 38 36 37 39 40
42 37 34 23 11 13 15 9 10 12 11 12 15 17 19 19 20 17 12 17 25 23 20 21 15 8 7 14 19 17 13 12 6 7 14 11 7 9 8 9 14 12 7 6 3 2 4 3 2 2 3 2 5 4 3 3 5 8 11 14 15 11 10 9 8 9 11 11 10 8 8 10 11 14 16 19 21 22 23 25 28 32 35 34 34 36 37 38
Wind_Direction
21 17 15 12 9 7 4 4 4 4 1 359 358 358 358 359 359 358 358 358 356 356 356 358 4 7 355 307 158 143 117 89 61 55 56 50 39 21 3 356 352 355 1 358 356 355 353 339 317 319 338 338 331 352 13 20 10 254 230 272 205 103 85 101 69 31 338 327 327 327 346 326 329 351 330 321 307 294 307 316 329 336 337 339 341 339 336 337
17 14 12 8 7 3 360 359 0 2 359 356 355 355 356 357 356 354 354 355 353 353 355 355 359 6 358 311 184 176 143 102 35 31 45 40 18 6 356 353 356 359 2 358 357 356 352 339 324 329 340 330 324 346 321 359 349 272 240 285 52 82 62 54 61 56 335 320 319 318 331 322 323 347 328 317 315 313 317 342 357 353 351 350 346 345 347 354
12 10 8 5 4 1 359 357 357 359 357 355 353 352 354 355 354 351 350 352 350 350 354 354 355 3 360 352 165 181 161 98 19 26 30 16 1 354 350 354 355 356 356 354 356 358 353 343 336 336 334 320 321 338 337 353 338 232 252 295 70 86 37 112 252 48 332 313 308 310 321 317 327 351 321 306 313 325 2 12 5 357 356 351 345 346 355 4
7 5 3 2 1 360 359 358 358 357 355 354 351 351 352 353 353 349 349 349 347 348 352 352 354 0 4 20 130 191 175 103 32 15 2 353 352 351 351 353 352 356 358 357 2 0 352 342 335 332 325 305 316 306 278 351 355 180 245 333 75 113 344 116 192 332 328 307 296 299 308 311 330 337 313 307 317 355 19 9 7 1 355 348 342 345 356 6
2 1 0 359 360 -0 0 -0 359 358 356 354 351 351 350 351 351 348 348 347 344 346 350 351 352 4 19 26 73 176 179 133 17 354 349 351 353 354 351 353 359 7 10 12 12 357 346 336 328 328 323 281 291 275 206 3 343 229 226 306 84 153 357 90 106 343 326 310 291 292 306 313 320 324 317 314 324 8 10 5 10 3 352 347 350 357 4 9
359 358 358 358 359 1 2 1 360 359 357 355 353 351 350 350 350 348 347 345 342 344 350 350 350 17 46 47 81 152 169 93 18 354 358 355 353 355 354 3 15 20 22 18 7 346 333 326 323 329 317 247 242 308 353 346 307 275 204 250 187 170 294 82 108 311 311 300 288 294 311 307 309 324 333 319 317 357 5 6 7 360 353 355 6 16 19 20
356 356 356 357 359 1 3 1 0 1 359 357 355 352 349 351 351 348 346 343 342 343 349 349 349 36 72 72 91 120 105 74 46 5 359 356 357 3 7 19 23 22 21 13 0 346 338 332 334 332 285 242 211 302 320 295 257 254 250 291 156 152 216 247 280 293 287 276 283 297 298 296 312 326 318 325 3 15 5 5 7 2 6 19 27 30 31 32
353 354 354 355 358 1 2 1 1 0 360 360 357 354 350 352 353 349 346 345 343 343 347 348 345 48 104 93 96 90 69 52 19 359 354 1 12 21 27 27 22 19 17 15 17 12 0 345 343 331 296 302 287 275 297 286 220 217 277 322 311 128 154 276 285 274 262 271 286 293 294 313 19 311 299 21 41 19 1 6 22 19 27 40 43 42 40 37
351 352 352 353 356 -0 1 0 1 -0 1 2 359 357 351 353 353 349 349 348 345 344 346 349 341 254 168 141 102 74 52 34 20 11 6 18 38 48 39 26 19 18 21 27 32 23 8 347 340 325 302 313 292 276 281 286 200 213 290 313 304 311 316 287 259 210 193 256 346 309 310 354 21 292 122 67 33 9 -0 22 39 38 48 51 50 46 42 38
348 350 350 350 353 358 359 358 1 0 2 3 2 360 354 354 353 351 352 349 346 344 347 350 345 75 223 225 105 83 56 44 35 26 28 49 65 53 33 23 18 21 30 34 30 19 6 353 342 319 292 276 268 265 242 267 322 306 303 305 295 296 302 250 162 134 130 120 86 323 321 341 325 290 102 55 21 4 7 43 48 54 59 52 49 45 40 37
345 349 349 348 351 355 356 357 359 0 2 5 5 2 358 356 355 355 354 350 347 344 348 352 9 81 87 121 94 84 68 56 46 40 52 72 65 43 24 19 18 21 32 36 30 16 5 3 351 332 307 275 271 257 227 254 309 321 316 307 293 273 179 159 133 115 122 121 140 302 317 325 317 35 71 33 14 4 18 57 56 59 57 48 46 41 38 35
344 348 347 347 349 352 353 354 357 0 1 4 6 5 2 359 358 357 355 353 348 345 351 353 101 100 85 96 86 85 82 68 59 55 57 66 36 20 17 17 17 20 29 35 30 17 5 6 2 343 313 301 308 303 241 279 309 315 330 307 300 297 154 144 96 90 128 118 146 291 315 305 312 68 59 27 12 2 30 70 60 55 51 44 41 38 36 31
342 346 346 346 348 350 351 351 356 359 360 2 4 5 4 1 1 359 358 356 351 349 355 357 140 128 78 88 91 93 87 72 65 56 46 44 25 17 18 17 16 18 28 34 29 18 6 7 13 344 323 321 315 311 295 303 301 288 336 269 310 332 170 140 89 58 122 114 93 327 322 312 336 58 57 22 8 10 57 76 57 51 48 41 39 35 33 28
339 343 344 345 348 348 348 349 354 357 359 359 360 4 4 1 2 1 2 -0 353 350 357 12 114 146 85 101 109 100 90 76 64 48 39 41 34 22 16 16 15 11 22 32 28 19 6 4 16 1 358 353 321 296 283 284 277 283 232 185 339 348 305 62 77 55 94 106 32 347 317 314 321 17 41 6 6 44 77 77 57 53 48 41 38 32 29 25
335 340 341 343 347 346 346 349 352 355 358 357 356 -0 360 358 -0 359 3 1 353 348 354 28 133 155 103 109 121 110 107 83 53 32 31 34 33 27 13 12 9 4 10 19 23 18 4 0 24 18 354 347 333 304 269 207 152 305 327 293 20 351 309 340 68 80 58 48 17 357 326 312 307 337 3 358 49 83 85 74 60 56 48 43 38 31 28 22
331 337 339 341 346 346 346 347 349 353 354 354 353 355 355 357 357 352 355 356 352 345 352 42 95 168 117 116 139 121 140 112 49 28 25 30 31 31 16 8 3 1 2 8 19 16 3 3 61 48 15 355 339 318 297 275 187 70 16 332 333 329 313 326 90 97 41 11 30 38 340 302 295 324 336 360 81 94 89 77 65 56 48 44 37 31 27 21
328 335 336 339 345 346 346 346 347 349 350 351 349 350 352 354 353 344 340 350 350 344 347 55 31 9 124 132 164 132 166 150 62 24 20 26 24 23 19 11 3 1 0 359 7 10 4 0 15 25 67 40 342 334 324 314 321 347 357 328 310 308 306 311 297 88 25 357 337 65 211 290 296 318 332 40 94 96 89 81 68 56 49 42 35 30 26 20
326 331 333 338 343 344 346 346 345 345 347 348 346 348 350 348 352 351 338 345 350 350 349 16 1 341 141 108 140 172 173 162 67 13 10 18 15 13 17 14 10 4 1 348 352 3 3 350 263 289 215 24 12 10 345 328 324 314 321 318 307 299 290 295 299 2 10 341 321 340 5 311 305 318 2 78 98 96 89 81 63 53 45 37 31 27 23 18
322 327 332 336 340 343 345 345 345 344 344 344 344 348 348 345 352 359 345 348 356 5 345 320 324 280 256 31 25 19 177 193 253 354 3 12 9 7 14 11 6 5 3 335 346 3 358 338 252 303 345 355 3 3 319 318 314 301 306 299 294 299 287 287 296 342 5 334 328 355 345 322 309 325 49 92 96 91 85 71 56 46 37 33 29 24 19 15
318 322 329 334 336 339 343 344 345 345 344 346 347 351 355 353 357 347 343 350 353 342 313 295 288 272 277 38 21 18 186 214 228 2 3 8 8 7 10 6 352 2 22 324 325 2 356 334 321 339 357 346 335 310 292 301 293 286 295 282 285 296 289 293 300 342 9 339 331 342 338 326 311 336 85 103 93 85 78 63 53 42 35 30 24 21 17 12
313 317 325 331 332 335 341 343 345 347 348 348 350 359 9 5 5 328 338 343 336 329 317 279 257 263 248 126 14 10 219 235 223 360 1 6 10 2 354 11 357 344 27 248 277 330 336 329 12 29 9 343 324 293 278 284 270 269 289 293 295 297 301 302 295 341 7 342 323 329 337 330 315 358 100 106 91 87 76 66 57 42 37 28 21 16 11 7
307 312 320 326 327 332 338 341 344 347 347 346 351 2 8 3 358 338 334 320 318 325 315 254 225 215 169 164 1 3 282 245 236 341 1 5 13 13 352 24 34 326 3 303 282 329 333 340 68 58 66 85 41 260 262 278 276 280 297 296 296 317 325 306 265 7 353 325 316 329 335 318 320 74 104 103 101 102 87 76 60 43 36 26 19 11 5 1
301 307 314 320 324 329 335 339 342 343 342 345 352 358 354 351 350 343 335 296 304 322 14 255 212 186 93 129 353 354 328 273 280 342 4 14 27 36 29 40 27 284 13 338 0 344 312 357 78 100 142 172 187 163 248 283 274 278 310 297 303 341 342 315 312 339 322 290 307 327 321 294 287 103 106 108 114 115 98 75 54 45 38 25 18 10 5 359
297 302 306 315 319 325 333 337 340 341 342 346 348 348 345 343 343 341 337 292 285 310 341 227 197 231 24 4 352 352 325 318 345 351 6 20 37 37 34 59 6 201 162 67 96 242 276 337 70 120 126 218 288 262 253 305 295 284 345 305 319 334 327 307 312 323 314 291 333 336 318 261 151 110 119 125 122 111 81 52 39 36 30 18 12 7 2 359
292 296 302 310 314 323 332 334 338 341 341 343 342 342 341 338 340 342 338 284 267 296 266 183 189 230 298 347 351 347 299 226 352 358 16 25 33 23 15 91 293 252 133 120 169 258 267 3 50 128 94 48 314 306 314 321 301 303 108 29 323 314 313 312 317 328 319 304 53 13 328 257 141 357 148 142 116 95 62 41 34 26 20 11 3 1 358 356
287 293 298 303 310 323 329 332 338 338 336 339 340 340 337 333 338 344 347 273 219 1 146 159 168 190 195 347 348 340 291 217 327 350 30 22 15 359 308 163 345 340 138 169 281 280 247 47 41 96 61 37 338 301 236 143 291 300 83 352 311 304 312 315 318 327 309 299 12 27 309 270 295 298 151 144 117 98 56 37 30 19 14 8 2 1 358 357
283 291 294 300 310 319 327 332 333 333 334 338 339 336 332 331 336 343 351 261 190 116 150 156 133 183 214 329 338 335 313 301 311 327 49 6 2 345 285 234 189 158 143 215 274 240 150 119 65 62 41 347 307 294 111 102 273 287 57 319 306 312 313 313 313 303 287 303 315 224 240 270 294 217 154 145 125 72 32 22 16 12 9 4 3 1 358 358
281 287 291 300 307 314 326 328 324 326 330 334 336 333 328 327 331 344 340 283 197 125 168 175 159 200 241 316 312 264 297 316 307 240 0 348 0 298 259 254 219 165 136 221 265 324 135 142 77 35 356 288 287 326 58 185 227 15 25 287 280 299 301 302 300 289 291 314 302 249 225 262 279 232 169 128 93 17 14 11 7 8 4 359 359 358 357 356
277 282 289 296 301 310 319 318 318 321 324 330 330 325 325 322 320 23 42 276 186 131 166 180 200 261 317 314 263 239 282 292 282 308 327 334 358 257 233 204 154 143 130 233 260 3 77 343 136 180 260 262 120 76 56 130 151 329 310 264 264 282 290 286 279 289 305 294 281 280 228 260 280 278 279 97 88 15 4 4 3 2 358 357 356 355 354 350
269 276 283 288 295 305 310 314 316 315 319 326 325 323 326 320 303 197 260 267 62 127 192 215 250 314 332 313 237 237 258 233 265 316 3 145 21 16 190 167 140 149 126 274 245 203 15 269 188 168 249 137 118 126 87 81 339 289 286 307 310 299 291 277 274 297 300 272 254 192 121 308 293 291 295 113 87 32 5 358 358 358 356 355 353 349 347 343
263 269 274 280 289 299 308 312 311 311 316 319 328 334 324 318 104 247 252 228 52 189 209 257 308 329 0 325 262 256 187 267 292 315 7 60 24 45 133 188 174 195 206 191 198 218 83 174 165 91 92 127 138 172 158 144 276 285 343 350 328 301 275 256 262 247 247 267 192 173 112 332 276 282 105 117 76 39 14 2 358 357 354 351 346 341 339 336
258 263 267 273 283 294 305 306 305 307 310 315 341 348 333 317 235 229 235 23 22 206 173 111 295 353 65 68 256 255 196 247 10 51 66 41 11 41 315 266 220 264 257 181 154 309 174 147 41 340 113 139 181 190 180 180 290 5 32 1 321 304 309 272 270 249 254 258 162 175 349 325 266 273 144 122 58 30 14 7 0 354 348 343 338 333 332 332
254 257 260 266 279 291 297 302 303 299 299 310 355 32 56 278 252 215 203 278 346 52 60 65 349 82 53 300 256 158 166 223 150 80 111 133 268 224 281 285 265 282 276 160 31 278 197 129 247 230 152 150 205 199 212 203 49 34 57 43 287 312 322 295 293 293 278 267 162 172 341 290 268 265 151 120 40 22 11 5 355 347 340 335 332 329 329 330
254 255 258 264 275 285 291 298 298 291 285 275 191 98 121 241 249 125 224 246 305 24 72 88 33 236 218 263 281 176 227 226 107 93 180 175 226 217 220 239 256 290 250 192 257 228 234 244 190 190 161 145 160 115 345 51 62 78 106 173 240 266 281 281 303 307 301 304 270 221 206 251 283 153 147 127 30 18 9 359 345 340 334 331 330 328 329 328
257 257 258 263 272 279 288 291 289 285 263 193 149 189 220 237 241 192 228 244 331 324 136 143 209 276 246 228 273 244 230 228 80 141 214 199 221 224 190 195 219 236 171 197 218 161 246 263 108 77 333 123 127 117 108 140 158 121 116 209 241 219 239 265 306 289 287 302 289 226 204 258 301 122 140 101 18 12 5 353 341 336 332 331 329 328 330 327
261 264 266 267 270 275 283 283 281 272 230 171 164 225 222 236 228 187 184 125 119 140 328 273 212 252 274 230 180 206 206 216 46 224 218 214 234 218 154 147 201 239 236 219 193 171 243 257 102 101 337 47 118 168 182 270 220 138 162 206 93 82 217 269 291 190 244 278 276 253 269 286 283 136 139 33 6 1 357 346 337 333 333 331 330 330 331 328
267 271 273 270 266 269 274 276 272 248 209 175 214 234 219 230 218 194 159 140 133 115 41 297 226 217 273 267 207 177 171 219 202 206 223 221 226 170 156 176 193 218 277 302 254 202 276 255 158 169 153 87 147 148 124 321 310 178 207 129 94 103 123 202 286 327 288 274 272 273 282 291 293 241 154 3 354 350 346 340 334 334 335 331 330 331 331 329
271 277 278 270 261 260 263 267 258 223 192 179 233 242 223 203 209 191 161 150 133 117 157 253 232 198 251 267 240 157 158 194 167 178 240 220 209 148 148 173 190 205 278 307 273 347 328 260 194 178 146 118 138 147 131 93 354 358 346 95 110 186 170 144 154 305 289 282 282 285 288 286 283 295 28 345 345 345 338 336 334 334 334 330 329 330 328 327
275 279 277 265 251 249 253 255 236 200 188 201 234 239 215 208 219 199 180 162 123 136 192 237 229 219 222 222 255 150 178 201 171 182 230 218 218 145 144 160 181 197 225 187 226 298 250 258 224 134 114 125 169 222 200 174 114 62 91 133 124 301 201 173 159 263 264 275 281 292 301 292 241 51 358 336 342 344 335 334 332 330 329 327 326 327 326 326
272 271 263 244 230 240 241 232 203 185 196 221 223 226 169 214 228 206 199 193 169 188 221 231 211 231 240 210 247 229 201 219 203 205 221 220 259 166 158 165 160 164 158 154 244 276 177 239 226 137 135 214 196 196 203 180 153 158 181 176 167 154 162 204 230 183 228 263 268 284 292 280 125 37 346 337 342 338 331 330 326 324 324 323 325 326 325 324
260 251 247 226 221 236 218 195 183 185 213 240 225 236 210 206 210 201 204 208 211 218 226 212 202 233 250 243 242 200 193 232 206 216 237 213 238 231 175 171 157 150 145 154 217 222 189 220 207 165 193 227 209 46 353 260 214 217 211 188 175 168 162 250 250 188 181 242 234 256 275 276 1 358 333 342 334 331 330 326 322 323 323 323 324 324 323 322
237 231 250 226 217 218 196 182 192 197 212 226 217 220 211 198 192 196 199 205 221 231 226 219 215 228 234 240 242 181 186 233 193 202 247 218 225 280 170 166 158 154 153 142 185 160 79 193 224 220 212 217 3 9 341 254 198 197 205 174 166 166 164 220 256 251 242 243 221 238 266 276 123 141 77 357 335 327 328 325 323 324 324 323 322 321 321 322
221 231 244 222 207 199 187 189 224 199 226 237 230 225 212 195 181 187 188 194 210 216 217 215 199 211 220 218 220 188 187 221 196 188 227 232 229 160 166 165 156 154 158 133 147 134 106 156 212 234 217 101 55 31 39 45 140 157 165 168 185 197 177 212 258 277 282 261 237 245 264 264 136 128 14 346 330 322 324 325 324 323 323 322 320 319 323 325
229 236 229 209 196 189 191 215 216 215 232 228 239 232 214 216 209 195 190 193 193 182 194 213 198 212 221 186 196 200 186 205 212 195 195 197 168 152 164 168 163 166 179 167 167 165 168 183 173 225 262 191 155 153 131 136 203 195 198 190 199 203 167 207 251 254 264 246 227 240 263 254 177 17 334 333 324 320 323 324 323 323 321 321 320 322 325 325
231 231 213 200 194 193 206 220 215 237 232 216 238 228 205 227 218 213 220 214 200 189 192 223 200 196 191 157 193 207 195 211 229 203 155 146 154 160 169 174 176 183 212 263 219 181 195 227 182 226 266 249 252 266 157 180 206 204 205 204 208 203 185 192 222 227 242 241 224 232 254 265 285 307 316 321 322 322 322 322 323 322 319 320 324 327 326 322
204 206 195 183 195 207 223 224 218 240 231 213 243 227 206 222 219 215 223 222 209 202 204 215 183 165 163 177 201 216 207 213 217 168 170 154 160 207 188 188 198 213 233 244 208 168 138 260 224 232 247 252 274 309 97 129 215 228 225 225 215 196 194 201 200 214 243 269 255 248 255 272 287 301 310 319 325 324 322 323 324 322 321 324 328 326 321 317
207 191 179 168 199 219 231 232 224 234 229 210 220 205 203 216 221 209 211 214 211 203 207 224 183 182 198 187 198 220 197 186 188 190 189 158 138 182 190 196 224 227 219 209 189 162 127 235 228 234 244 258 288 304 88 150 246 249 250 255 241 198 182 190 204 226 253 283 265 260 271 280 286 301 312 319 324 323 325 326 323 321 323 326 326 322 316 315
216 213 194 195 211 216 218 224 217 221 231 222 216 222 214 215 220 212 198 204 214 198 198 229 207 205 208 185 181 209 181 184 218 200 163 153 145 146 174 198 226 211 200 196 191 177 227 247 223 226 246 259 282 285 273 259 259 252 249 260 258 226 196 197 214 232 241 249 255 271 291 288 289 303 309 317 324 322 324 323 319 318 322 324 322 317 314 317
216 223 200 198 217 229 213 206 199 207 224 221 221 231 225 225 228 218 173 154 224 207 204 224 219 208 208 191 183 202 186 184 211 199 161 165 166 161 173 197 200 191 185 182 192 190 206 243 207 218 253 256 250 260 262 252 251 249 249 258 259 247 237 232 233 239 241 246 255 269 282 281 286 302 306 314 320 318 319 320 316 317 322 322 318 314 315 322
215 218 203 191 222 242 223 196 186 200 218 213 223 231 225 231 234 221 183 192 213 204 203 223 226 202 200 199 198 213 208 191 194 182 159 158 166 177 186 171 158 167 174 173 188 222 216 169 120 173 258 248 227 239 252 246 242 245 254 261 259 252 252 250 243 240 242 251 261 269 277 278 286 307 309 313 315 315 318 319 315 317 320 318 317 318 322 326
225 228 222 207 225 234 218 199 189 203 221 208 217 231 229 233 232 224 218 218 219 211 195 213 220 193 188 205 209 219 214 189 165 157 172 180 188 187 190 161 149 154 172 180 179 210 219 205 112 149 258 244 196 217 245 246 245 248 254 260 257 245 243 245 230 217 228 252 269 275 277 282 302 316 312 313 315 315 319 320 316 317 318 316 318 321 323 323
223 228 224 214 225 228 214 204 195 210 231 218 213 224 231 236 230 222 231 228 222 225 219 209 199 168 184 212 214 215 197 172 140 146 174 184 179 174 177 166 161 159 161 171 179 189 191 198 159 178 260 247 151 176 233 248 257 256 247 247 244 230 232 240 228 217 226 244 264 271 274 289 310 318 315 315 317 319 322 320 316 315 313 315 321 322 319 319